Regional Weather Roundup
Issued by NWS Columbia, SC

Home | Current Version | Previous Version | Text Only | Print | Product List | Glossary On
Versions: 1 2 3 4 5 6 7 8 9 10 11 12 13 14 15 16 17 18 19 20 21 22 23 24 25 26 27 28 29 30 31 32 33 34 35 36 37 38 39 40 41 42 43 44 45 46 47 48 49 50
000
ASUS42 KCAE 271910
RWRCAE
REGIONAL WEATHER ROUNDUP
NATIONAL WEATHER SERVICE COLUMBIA SC
200 PM EST THU NOV 27 2014

NOTE: "FAIR" INDICATES FEW OR NO CLOUDS BELOW 12,000 FEET WITH NO
SIGNIFICANT WEATHER AND/OR OBSTRUCTIONS TO VISIBILITY.

NOT ALL STATIONS ARE QUALITY CONTROLLED BY THE NATIONAL
WEATHER SERVICE. USE DATA WITH CAUTION...ESPECIALLY
DEWPOINT OBSERVATIONS.

SCZ001>056-GAZ040-063>065-077-272000-
...UPSTATE SOUTH CAROLINA...

CITY           SKY/WX    TMP DP  RH WIND       PRES   REMARKS
ANDERSON       SUNNY     51  26  37 W15G22    30.17S
LIBERTY        FAIR      51  29  42 MISG      30.14F
SPARTANBURG    FAIR      52  27  37 NW14G22   30.13S
CLEMSON        MOSUNNY   51  23  33 NW13G21   30.18S
GREENVILLE     SUNNY     51  21  30 NW13      30.15S
GREENWOOD      PTSUNNY   52  26  36 W10G21    30.16F
GREER          MOSUNNY   51  26  37 N10G16    30.13S
ROCK HILL      PTSUNNY   53  28  38 W16G23    30.11S
CHESTER        FAIR      54  27  35 NW9       30.12S
LAURENS        MOCLDY    50  12  22 NW9G17    30.13S


...CENTRAL SOUTH CAROLINA...

CITY           SKY/WX    TMP DP  RH WIND       PRES   REMARKS
COLUMBIA APT   PTSUNNY   55  28  35 NW17      30.13S
COLUMBIA OWENS PTSUNNY   55  26  32 W13G20    30.14R
DARLINGTON     MOSUNNY   54  32  43 NW15      30.10S
FLORENCE       PTSUNNY   54  31  41 NW13      30.08R
MCENTIRE ANGB  PTSUNNY   55  28  35 W16G25    30.12S
ORANGEBURG     MOSUNNY   55  29  36 N15G22    30.12F
SUMTER SHAW    MOSUNNY   53  27  36 W14G21    30.09S
NEWBERRY       FAIR      52  28  40 W15       30.16F
AIKEN          FAIR      52  32  46 W18       30.18S
BARNWELL       FAIR      54  32  43 NW12G20   30.16S
CAMDEN         MOCLDY    54  28  37 NW12G25   30.11S
LANCASTER      FAIR      52  28  40 NW12G20   30.11S
WINNSBORO      FAIR      52  30  43 NW14G20   30.11S


...EASTERN AND COASTAL SOUTH CAROLINA...

CITY           SKY/WX    TMP DP  RH WIND       PRES   REMARKS
N MYRTLE BCH   PTSUNNY   54  34  46 W15G26    30.04R
CONWAY         MOCLDY    54  34  47 W8G20     30.07S
MARION         MOCLDY    52  34  50 NW16G32   30.08R
FLORENCE       PTSUNNY   54  31  41 NW13      30.08R
DARLINGTON     MOSUNNY   54  32  43 NW15      30.10S
CHARLESTON APT MOSUNNY   55  29  36 NW21G30   30.11S
MOUNT PLEASANT FAIR      55  32  41 NW17G25   30.10S
WALTERBORO     MOCLDY    57  25  28 W13G21    30.14S
BEAUFORT       MOSUNNY   56  29  35 W23G29    30.14S


...EASTERN GEORGIA...

CITY           SKY/WX    TMP DP  RH WIND       PRES   REMARKS
AUGUSTA BUSH F MOSUNNY   53  28  38 NW17G31   30.18S
AUGUSTA DANIEL MOSUNNY   53  29  39 NW18G25   30.18S
THOMSON        SUNNY     53  37  54 NW17G24   30.23F
WASHINGTON     FAIR      55  34  44 W14G26    30.19S
CLAXTON        FAIR      55   5  13 NW20      30.18F
SYLVANIA       PTCLDY    56  33  42 NW16G25   30.17F
STATESBORO     MOSUNNY   55  32  41 NW16G26   30.17F
SAVANNAH       MOSUNNY   58  28  32 W17G29    30.16F


...SOUTHERN NORTH CAROLINA...

CITY           SKY/WX    TMP DP  RH WIND       PRES   REMARKS
CHARLOTTE      PTSUNNY   51  27  39 NW8       30.11R
MONROE         PTSUNNY   52  28  39 NW18G25   30.08S
WADESBORO      RAIN      45  39  79 NW16G22   30.12R
ROCKINGHAM     MOCLDY    50  33  53 NW20      30.08S
RUTHERFORDTON  CLOUDY    46  27  48 NW13G26   30.13R
ASHEVILLE      FLURRIES  37  26  64 N18G26    30.15S WCI  27

$$


USA.gov is the U.S. government's official web portal to all federal, state and local government web resources and services.